KO4WQD Weather Reports


Display with metric or nautical units.
time (UTC)temp
F
wind
direction
speed
MPH
gust
MPH
rain 1hr
in
rain 24hr
in
rain mn
in
humidity
%
barometer
mb
20260509201509 71 253 2.0 8.0 0.00 0.00 0.00 52 1008.2
20260509200014 71 183 2.0 9.0 0.00 0.00 0.00 53 1008.3
20260509194524 71 177 4.0 11.0 0.00 0.00 0.00 53 1008.4
20260509193024 70 182 4.0 9.0 0.00 0.00 0.00 56 1008.3
20260509191528 70 125 4.0 9.0 0.00 0.00 0.00 53 1008.5
20260509190012 70 232 2.0 9.0 0.00 0.00 0.00 53 1008.7
20260509184525 69 106 2.0 4.0 0.00 0.00 0.00 54 1009.0
20260509183022 68 80 4.0 9.0 0.00 0.00 0.00 54 1009.0
20260509181527 68 50 2.0 7.0 0.00 0.00 0.00 54 1009.2
20260509180044 67 169 3.0 10.0 0.00 0.00 0.00 53 1009.4
20260509174522 66 28 4.0 6.0 0.00 0.00 0.00 52 1009.7
20260509173020 66 54 2.0 6.0 0.00 0.00 0.00 53 1010.1
20260509171525 66 352 1.0 6.0 0.00 0.00 0.00 51 1010.3
20260509170045 66 88 2.0 9.0 0.00 0.00 0.00 51 1010.6
20260509164515 65 88 3.0 9.0 0.00 0.00 0.00 52 1010.6
20260509163025 65 113 4.0 9.0 0.00 0.00 0.00 55 1010.5
20260509161523 65 51 6.0 9.0 0.00 0.00 0.00 55 1010.4
20260509160028 64 96 4.0 10.0 0.00 0.00 0.00 57 1010.5
20260509154529 63 103 3.0 8.0 0.00 0.00 0.00 56 1010.6
20260509153020 63 173 3.0 6.0 0.00 0.00 0.00 56 1010.8
20260509151524 62 343 1.0 3.0 0.00 0.00 0.00 59 1010.8
20260509150026 62 259 2.0 3.0 0.00 0.00 0.00 56 1010.9
20260509144527 61 115 1.0 3.0 0.00 0.00 0.00 58 1011.0
20260509143019 60 192 2.0 3.0 0.00 0.00 0.00 58 1011.2
20260509141510 60 265 2.0 3.0 0.00 0.00 0.00 60 1011.2
20260509140003 59 228 2.0 4.0 0.00 0.00 0.00 62 1011.4
20260509134523 58 239 1.0 2.0 0.00 0.00 0.00 65 1011.2
20260509133015 58 121 1.0 2.0 0.00 0.00 0.00 65 1011.0
20260509131526 58 209 2.0 4.0 0.00 0.00 0.00 61 1011.2
20260509130004 58 151 0.0 2.0 0.00 0.00 0.00 66 1011.3
20260509124511 57 174 0.0 2.0 0.00 0.00 0.00 66 1011.1
20260509123014 56 186 0.0 2.0 0.00 0.00 0.00 65 1011.1
20260509121523 56 74 0.0 2.0 0.00 0.00 0.00 69 1011.1
20260509120024 55 81 0.0 2.0 0.00 0.00 0.00 66 1011.1
20260509114508 55 118 0.0 2.0 0.00 0.00 0.00 68 1010.8
20260509113013 55 232 0.0 2.0 0.00 0.00 0.00 66 1010.6
20260509111519 55 214 1.0 3.0 0.00 0.00 0.00 63 1010.3
20260509110021 55 219 1.0 2.0 0.00 0.00 0.00 63 1010.3
20260509104526 55 261 0.0 2.0 0.00 0.00 0.00 65 1010.4
20260509103007 55 224 1.0 2.0 0.00 0.00 0.00 64 1010.4
20260509101527 55 243 1.0 2.0 0.00 0.00 0.00 62 1010.4
20260509100022 55 254 1.0 2.0 0.00 0.00 0.00 61 1010.5
20260509094529 55 263 0.0 2.0 0.00 0.00 0.00 63 1010.4
20260509093009 56 294 0.0 2.0 0.00 0.00 0.00 62 1010.4
20260509091511 56 298 0.0 3.0 0.00 0.00 0.00 59 1010.5
20260509090020 57 246 1.0 3.0 0.00 0.00 0.00 57 1010.4
20260509084524 57 211 1.0 3.0 0.00 0.00 0.00 57 1010.6
20260509083026 57 232 1.0 3.0 0.00 0.00 0.00 57 1010.6
20260509081522 57 200 3.0 6.0 0.00 0.00 0.00 54 1010.7
20260509080017 57 136 2.0 4.0 0.00 0.00 0.00 58 1010.8
20260509074520 56 217 1.0 3.0 0.00 0.00 0.00 62 1010.8
20260509073039 55 217 0.0 2.0 0.00 0.00 0.00 63 1010.9
20260509071528 55 202 0.0 2.0 0.00 0.00 0.00 65 1010.9
20260509070027 55 229 0.0 2.0 0.00 0.00 0.00 68 1010.9
20260509064524 55 229 0.0 2.0 0.00 0.00 0.00 62 1011.0
20260509063051 56 225 0.0 3.0 0.00 0.00 0.00 61 1011.2
20260509061539 55 211 1.0 3.0 0.00 0.00 0.00 62 1011.3
20260509060010 54 259 1.0 3.0 0.00 0.00 0.00 64 1011.4
20260509054515 54 257 0.0 2.0 0.00 0.00 0.00 69 1011.5
20260509053022 51 229 0.0 3.0 0.00 0.00 0.00 73 1011.6
20260509051507 50 232 0.0 2.0 0.00 0.00 0.00 77 1011.6
20260509050009 51 182 0.0 2.0 0.00 0.00 0.00 75 1011.7
20260509044513 51 182 0.0 2.0 0.00 0.00 0.00 76 1011.6
20260509043020 51 182 0.0 1.0 0.00 0.00 0.00 75 1011.6
20260509041522 51 174 0.0 2.0 0.00 0.00 0.00 74 1011.8
20260509040005 50 174 0.0 2.0 0.00 0.00 0.00 76 1011.8
20260509034511 50 174 0.0 0.0 0.00 0.00 0.00 76 1011.8
20260509033018 51 174 0.0 0.0 0.00 0.00 0.00 75 1011.8
20260509031522 51 174 0.0 0.0 0.00 0.00 0.00 75 1011.9
20260509030026 52 174 0.0 2.0 0.00 0.00 0.00 75 1011.9
20260509024515 53 174 0.0 0.0 0.00 0.00 0.00 72 1012.0
20260509023014 54 174 0.0 0.0 0.00 0.00 0.00 65 1012.0
20260509021520 55 174 0.0 2.0 0.00 0.00 0.00 63 1011.9
20260509020036 55 174 0.0 0.0 0.00 0.00 0.00 67 1011.9
20260509014517 56 174 0.0 0.0 0.00 0.00 0.00 68 1011.9
20260509013012 57 174 0.0 2.0 0.00 0.00 0.00 57 1011.7
20260509011520 58 174 0.0 0.0 0.00 0.00 0.00 61 1011.8
20260509010020 60 174 0.0 0.0 0.00 0.00 0.00 61 1011.6
20260509004524 62 174 0.0 0.0 0.00 0.00 0.00 55 1011.5
20260509003027 64 174 0.0 2.0 0.00 0.00 0.00 46 1011.4
20260509001514 65 225 0.0 3.0 0.00 0.00 0.00 45 1011.3
20260509000022 65 217 1.0 2.0 0.00 0.00 0.00 42 1011.1
20260508234526 66 220 0.0 2.0 0.00 0.00 0.00 43 1010.9
20260508233028 67 220 0.0 0.0 0.00 0.00 0.00 48 1010.9
20260508231514 68 220 0.0 2.0 0.00 0.00 0.00 39 1010.8
20260508230020 68 236 0.0 2.0 0.00 0.00 0.00 36 1010.8
20260508224526 69 269 0.0 2.0 0.00 0.00 0.00 34 1010.8
20260508223031 69 225 2.0 6.0 0.00 0.00 0.00 33 1010.7
20260508221512 70 163 2.0 5.0 0.00 0.00 0.00 34 1010.6
20260508220018 69 213 1.0 2.0 0.00 0.00 0.00 33 1010.7
20260508214522 70 248 1.0 4.0 0.00 0.00 0.00 33 1010.8
20260508213027 71 186 1.0 5.0 0.00 0.00 0.00 32 1010.7
20260508211529 72 229 2.0 5.0 0.00 0.00 0.00 33 1010.7
20260508210014 70 324 2.0 5.0 0.00 0.00 0.00 31 1010.9
20260508204520 71 196 5.0 12.0 0.00 0.00 0.00 31 1011.0
20260508203025 71 203 3.0 9.0 0.00 0.00 0.00 33 1011.1